Weather History for Makkah, Saudi Arabia

Change the Weather History Date:

Thursday, November 1, 2012

  Actual Average Record
Temperature  
Mean Temperature 89 °F -  
Max Temperature 100 °F 98 °F 102 °F (2000)
Min Temperature 78 °F 76 °F 68 °F (1997)
Cooling Degree Days 24    
Growing Degree Days 39 (Base 50)    
Moisture  
Dew Point 65 °F    
Average Humidity 46    
Maximum Humidity 61    
Minimum Humidity 18    
Precipitation  
Precipitation 0.00 in - - ()
Sea Level Pressure  
Sea Level Pressure 29.86 in    
Wind  
Wind Speed 1 mph ()    
Max Wind Speed 7 mph    
Max Gust Speed -    
Visibility 6.0 miles    
Events      
Averages and records for this station are not official NWS values.
T = Trace of Precipitation, MM = Missing Value Source: Averaged Metar Reports

Daily Weather History Graph

Daily Weather History Graph

Search for Another Location

Airport:

Trip Planner

Search our weather history database for the weather conditions in past years. The results will help you decide how hot, cold, wet, or windy it might be!

Date:

Astronomy

Nov. 01, 2012 Rise Set
Actual Time 6:23 AM AST 5:43 PM AST
Civil Twilight 6:00 AM AST 6:06 PM AST
Nautical Twilight 5:33 AM AST 6:32 PM AST
Astronomical Twilight 5:07 AM AST 6:59 PM AST
Moon 7:38 PM AST (11/1) 8:23 AM AST (11/1)
Length of Visible Light 12h 06m
Length of Day
11h 20m
Waning Gibbous, 94% of the Moon is Illuminated
Nov 1
Waning Gibbous
Nov 7
Last Quarter
Nov 14
New
Nov 20
First Quarter
Nov 28
Full

Hourly Weather History & Observations

Time (AST) Temp. Heat Index Dew Point Humidity Pressure Visibility Wind Dir Wind Speed Gust Speed Precip Events Conditions
12:00 AM 84 °F - 68 °F 50% 29.81 in 6 mi North 1.2 mph - -   Scattered Clouds
12:00 AM 84.2 °F 87.3 °F 68.0 °F 58% 29.86 in - North 1.2 mph - N/A   Clear
1:00 AM 84.2 °F 87.3 °F 68.0 °F 58% 29.86 in - Calm Calm - N/A   Clear
2:00 AM 82.4 °F 83.4 °F 62.6 °F 51% 29.86 in - Calm Calm - N/A   Clear
3:00 AM 82 °F - 64 °F 46% 29.78 in 6 mi Calm Calm - -  
3:00 AM 82.4 °F 83.9 °F 64.4 °F 54% 29.83 in - Calm Calm - N/A   Clear
4:00 AM 80.6 °F 82.7 °F 66.2 °F 61% 29.83 in - Calm Calm - N/A   Clear
5:00 AM 82.4 °F 84.6 °F 66.2 °F 58% 29.83 in - Calm Calm - N/A   Clear
6:00 AM 80 °F - 61 °F 42% 29.82 in 6 mi Calm Calm - -  
6:00 AM 78.8 °F - 60.8 °F 54% 29.86 in - Calm Calm - N/A   Clear
7:00 AM 78.8 °F - 62.6 °F 57% 29.89 in - Calm Calm - N/A   Clear
8:00 AM 80.6 °F 82.3 °F 64.4 °F 58% 29.92 in - South 2.3 mph - N/A   Clear
9:00 AM 85 °F - 68 °F 47% 29.89 in 6 mi Calm Calm - -  
9:00 AM 84.2 °F 87.3 °F 68.0 °F 58% 29.92 in - Calm Calm - N/A   Clear
10:00 AM 89.6 °F 94.7 °F 69.8 °F 52% 29.92 in - Calm Calm - N/A   Clear
11:00 AM 93.2 °F 98.8 °F 69.8 °F 46% 29.92 in - Calm Calm - N/A   Clear
12:00 PM 95 °F - 68 °F 32% 29.85 in 6 mi South 2.3 mph - -  
12:00 PM 95.0 °F 99.5 °F 68.0 °F 41% 29.89 in - South 2.3 mph - N/A   Clear
1:00 PM 96.8 °F 100.7 °F 66.2 °F 37% 29.86 in - SW 2.3 mph - N/A   Clear
2:00 PM 98.6 °F 101.0 °F 64.4 °F 32% 29.86 in - WSW 2.3 mph - N/A   Clear
3:00 PM 99 °F - 59 °F 18% 29.78 in 6 mi South 3.5 mph - -   Scattered Clouds
3:00 PM 98.6 °F 98.5 °F 59.0 °F 27% 29.83 in 6.2 mi South 3.5 mph - N/A   Partly Cloudy
4:00 PM 98.6 °F 99.4 °F 60.8 °F 29% 29.83 in 6.2 mi SW 4.6 mph - N/A   Partly Cloudy
5:00 PM 96.8 °F 97.1 °F 60.8 °F 30% 29.83 in - WSW 5.8 mph - N/A   Clear
6:00 PM 91 °F - 64 °F 31% 29.79 in 6 mi SSW 6.9 mph - -  
6:00 PM 91.4 °F 93.2 °F 64.4 °F 41% 29.83 in - SSW 6.9 mph - N/A   Clear
7:00 PM 89.6 °F 92.2 °F 66.2 °F 46% 29.86 in - SSW 3.5 mph - N/A   Clear
8:00 PM 87.8 °F 90.4 °F 66.2 °F 49% 29.89 in - SW 2.3 mph - N/A   Clear
9:00 PM 87 °F - 68 °F 44% 29.85 in 6 mi Calm Calm - -   Clear
9:00 PM 87.8 °F 91.4 °F 68.0 °F 52% 29.89 in - Calm Calm - N/A   Clear
10:00 PM 86.0 °F 89.4 °F 68.0 °F 55% 29.89 in - Calm Calm - N/A   Clear
11:00 PM 86.0 °F 89.4 °F 68.0 °F 55% 29.89 in - Calm Calm - N/A   Clear